This is the latest recevied weather packets stored in our database for station/object DH4SBM. If no packets are shown the sender has not sent any weather packets the latest 10 day(s).
| Time | Temp. | Humidity | Pressure | Rain* | Wind** | Luminosity | Snow |
|---|---|---|---|---|---|---|---|
| 1788090751 | 22.22° C | 74% | 1016.5 hPa | 0 mm | - | 100 W/m² | - |
| 1788090151 | 22.22° C | 72% | 1016.5 hPa | 0 mm | - | 165 W/m² | - |
| 1788089551 | 22.78° C | 69% | 1016.4 hPa | 0 mm | - | 63 W/m² | - |
| 1788088952 | 22.22° C | 72% | 1016.5 hPa | 0 mm | - | 116 W/m² | - |
| 1788088352 | 22.22° C | 68% | 1016.4 hPa | 0 mm | - | 81 W/m² | - |
| 1788087751 | 22.22° C | 68% | 1016.4 hPa | 0 mm | - | 90 W/m² | - |
| 1788087151 | 22.78° C | 67% | 1016.6 hPa | 0 mm | - | 114 W/m² | - |
| 1788086551 | 22.22° C | 68% | 1016.6 hPa | 0 mm | - | 190 W/m² | - |
| 1788085953 | 22.22° C | 67% | 1016.7 hPa | 0 mm | - | 121 W/m² | - |
| 1788085353 | 22.78° C | 66% | 1016.6 hPa | 0 mm | - | 65 W/m² | - |
| 1788084752 | 22.78° C | 66% | 1016.7 hPa | 0 mm | - | 172 W/m² | - |
| 1788084152 | 22.78° C | 67% | 1016.7 hPa | 0 mm | - | 308 W/m² | - |
| 1788083552 | 22.78° C | 66% | 1016.7 hPa | 0 mm | - | 183 W/m² | - |
| 1788082952 | 22.78° C | 66% | 1016.7 hPa | 0 mm | - | 367 W/m² | - |
| 1788082351 | 22.78° C | 66% | 1016.9 hPa | 0 mm | - | 278 W/m² | - |
| 1788081751 | 22.78° C | 66% | 1016.9 hPa | 0 mm | - | 258 W/m² | - |
| 1788081151 | 22.78° C | 65% | 1017 hPa | 0 mm | - | 283 W/m² | - |
| 1788080553 | 22.78° C | 65% | 1017.1 hPa | 0 mm | - | 204 W/m² | - |
| 1788079953 | 22.78° C | 65% | 1017 hPa | 0 mm | - | 251 W/m² | - |
| 1788079352 | 23.33° C | 65% | 1017 hPa | 0 mm | - | 218 W/m² | - |
| 1788078752 | 22.78° C | 66% | 1017 hPa | 0 mm | - | 520 W/m² | - |
| 1788078152 | 22.22° C | 67% | 1017 hPa | 0 mm | - | 392 W/m² | - |
| 1788077552 | 21.67° C | 67% | 1016.8 hPa | 0 mm | - | 153 W/m² | - |
| 1788076952 | 21.67° C | 68% | 1016.8 hPa | 0 mm | - | 185 W/m² | - |
| 1788076352 | 21.67° C | 67% | 1016.8 hPa | 0 mm | - | 178 W/m² | - |
* Rain latest hour (hover to see other rain measurements)
** Current wind speed in m/s (hover to see current wind gust speed)